Time,TemperatureF,DewpointF,PressureIn,WindDirection,WindDirectionDegrees,WindSpeedMPH,WindSpeedGustMPH,Humidity,HourlyPrecipIn,Conditions,Clouds,dailyrainin,SoftwareType,DateUTC
2013-01-22 00:00:00,38.2,10.2,30.16,NNW,347,0.0,0.0,31,0.00,,,0.00,Wunderground v.1.15,2013-01-22 07:00:00,
2013-01-22 00:10:00,37.8,9.8,30.14,NE,52,0.0,0.0,31,0.00,,,0.00,Wunderground v.1.15,2013-01-22 07:10:00,
2013-01-22 00:15:00,37.7,9.7,30.14,ENE,65,0.0,0.0,31,0.00,,,0.00,Wunderground v.1.15,2013-01-22 07:15:00,
2013-01-22 00:20:00,37.7,9.7,30.14,ENE,75,0.0,0.0,31,0.00,,,0.00,Wunderground v.1.15,2013-01-22 07:20:00,
2013-01-22 00:30:00,37.7,9.7,30.14,NE,41,0.0,0.0,31,0.00,,,0.00,Wunderground v.1.15,2013-01-22 07:30:00,
2013-01-22 00:35:00,37.6,9.6,30.14,NE,54,0.0,0.0,31,0.00,,,0.00,Wunderground v.1.15,2013-01-22 07:35:00,
2013-01-22 00:40:00,37.5,10.3,30.14,North,360,0.0,0.0,32,0.00,,,0.00,Wunderground v.1.15,2013-01-22 07:40:00,
2013-01-22 00:45:00,37.5,10.3,30.15,North,351,0.0,0.0,32,0.00,,,0.00,Wunderground v.1.15,2013-01-22 07:45:00,
2013-01-22 00:50:00,37.5,10.3,30.15,NW,325,0.0,0.0,32,0.00,,,0.00,Wunderground v.1.15,2013-01-22 07:50:00,
2013-01-22 01:00:00,37.4,10.2,30.15,North,351,0.0,0.0,32,0.00,,,0.00,Wunderground v.1.15,2013-01-22 08:00:00,
2013-01-22 01:05:00,37.5,10.3,30.13,North,355,0.0,0.0,32,0.00,,,0.00,Wunderground v.1.15,2013-01-22 08:05:00,
2013-01-22 01:15:00,37.4,10.2,30.12,NW,307,0.0,0.0,32,0.00,,,0.00,Wunderground v.1.15,2013-01-22 08:15:00,
2013-01-22 01:20:00,37.6,10.4,30.13,East,79,0.0,0.0,32,0.00,,,0.00,Wunderground v.1.15,2013-01-22 08:20:00,
2013-01-22 01:25:00,37.6,10.4,30.13,North,355,0.0,0.0,32,0.00,,,0.00,Wunderground v.1.15,2013-01-22 08:25:00,
2013-01-22 01:35:00,37.6,10.4,30.13,NE,36,0.0,0.0,32,0.00,,,0.00,Wunderground v.1.15,2013-01-22 08:35:00,
2013-01-22 01:40:00,37.4,10.2,30.13,North,355,0.0,0.0,32,0.00,,,0.00,Wunderground v.1.15,2013-01-22 08:40:00,
2013-01-22 01:45:00,37.1,9.9,30.13,NNW,340,0.0,0.0,32,0.00,,,0.00,Wunderground v.1.15,2013-01-22 08:45:00,
2013-01-22 01:50:00,36.8,9.7,30.13,NNE,28,0.0,0.0,32,0.00,,,0.00,Wunderground v.1.15,2013-01-22 08:50:00,
2013-01-22 01:55:00,36.6,10.2,30.13,ENE,69,0.0,0.0,33,0.00,,,0.00,Wunderground v.1.15,2013-01-22 08:55:00,
2013-01-22 02:05:00,36.2,9.8,30.13,NNE,29,0.0,0.0,33,0.00,,,0.00,Wunderground v.1.15,2013-01-22 09:05:00,
2013-01-22 02:15:00,35.7,9.4,30.13,NE,34,0.0,0.0,33,0.00,,,0.00,Wunderground v.1.15,2013-01-22 09:15:00,
2013-01-22 02:20:00,35.5,9.9,30.13,NE,35,0.0,0.0,34,0.00,,,0.00,Wunderground v.1.15,2013-01-22 09:20:00,
2013-01-22 02:25:00,35.4,9.8,30.13,North,355,0.0,0.0,34,0.00,,,0.00,Wunderground v.1.15,2013-01-22 09:25:00,
2013-01-22 02:30:00,35.3,9.7,30.13,NE,37,0.0,0.0,34,0.00,,,0.00,Wunderground v.1.15,2013-01-22 09:30:00,
2013-01-22 02:35:00,35.3,9.7,30.13,ENE,62,0.0,0.0,34,0.00,,,0.00,Wunderground v.1.15,2013-01-22 09:35:00,
2013-01-22 02:40:00,35.2,9.6,30.14,ENE,63,0.0,0.0,34,0.00,,,0.00,Wunderground v.1.15,2013-01-22 09:40:00,
2013-01-22 02:45:00,35.2,9.6,30.14,NNE,16,0.0,0.0,34,0.00,,,0.00,Wunderground v.1.15,2013-01-22 09:45:00,
2013-01-22 02:50:00,35.2,9.6,30.14,NE,46,0.0,0.0,34,0.00,,,0.00,Wunderground v.1.15,2013-01-22 09:50:00,
2013-01-22 02:55:00,35.2,9.6,30.13,NE,51,0.0,0.0,34,0.00,,,0.00,Wunderground v.1.15,2013-01-22 09:55:00,
2013-01-22 03:00:00,35.2,9.6,30.14,NNW,346,0.0,0.0,34,0.00,,,0.00,Wunderground v.1.15,2013-01-22 10:00:00,
2013-01-22 03:10:00,35.1,9.5,30.16,North,5,0.0,0.0,34,0.00,,,0.00,Wunderground v.1.15,2013-01-22 10:10:00,
2013-01-22 03:20:00,35.0,10.1,30.16,North,355,0.0,0.0,35,0.00,,,0.00,Wunderground v.1.15,2013-01-22 10:20:00,
2013-01-22 03:25:00,34.9,10.0,30.16,North,355,0.0,0.0,35,0.00,,,0.00,Wunderground v.1.15,2013-01-22 10:25:00,
2013-01-22 03:30:00,34.8,9.9,30.16,ENE,78,0.0,0.0,35,0.00,,,0.00,Wunderground v.1.15,2013-01-22 10:30:00,
2013-01-22 03:35:00,34.6,9.7,30.16,West,267,0.0,0.0,35,0.00,,,0.00,Wunderground v.1.15,2013-01-22 10:35:00,
2013-01-22 03:40:00,34.4,9.5,30.16,NW,324,0.0,0.0,35,0.00,,,0.00,Wunderground v.1.15,2013-01-22 10:40:00,
2013-01-22 03:50:00,33.9,9.7,30.16,NNE,18,0.0,0.0,36,0.00,,,0.00,Wunderground v.1.15,2013-01-22 10:50:00,
2013-01-22 03:55:00,33.7,9.5,30.16,North,349,0.0,0.0,36,0.00,,,0.00,Wunderground v.1.15,2013-01-22 10:55:00,
2013-01-22 04:00:00,33.4,9.9,30.16,NNE,26,0.0,0.0,37,0.00,,,0.00,Wunderground v.1.15,2013-01-22 11:00:00,
2013-01-22 04:05:00,33.3,9.8,30.19,NW,324,0.0,0.0,37,0.00,,,0.00,Wunderground v.1.15,2013-01-22 11:05:00,
2013-01-22 04:15:00,33.3,10.4,30.19,NE,37,0.0,1.0,38,0.00,,,0.00,Wunderground v.1.15,2013-01-22 11:15:00,
2013-01-22 04:20:00,33.4,9.9,30.19,NNE,30,0.0,0.0,37,0.00,,,0.00,Wunderground v.1.15,2013-01-22 11:20:00,
2013-01-22 04:30:00,33.5,10.0,30.19,NE,42,0.0,0.0,37,0.00,,,0.00,Wunderground v.1.15,2013-01-22 11:30:00,
2013-01-22 04:35:00,33.5,10.0,30.19,ENE,68,0.0,0.0,37,0.00,,,0.00,Wunderground v.1.15,2013-01-22 11:35:00,
2013-01-22 04:40:00,33.4,9.9,30.19,NE,36,0.0,0.0,37,0.00,,,0.00,Wunderground v.1.15,2013-01-22 11:40:00,
2013-01-22 04:45:00,33.4,9.9,30.19,NE,53,0.0,0.0,37,0.00,,,0.00,Wunderground v.1.15,2013-01-22 11:45:00,
2013-01-22 04:50:00,33.5,10.0,30.19,North,360,0.0,0.0,37,0.00,,,0.00,Wunderground v.1.15,2013-01-22 11:50:00,
2013-01-22 04:55:00,33.5,10.0,30.19,North,5,0.0,0.0,37,0.00,,,0.00,Wunderground v.1.15,2013-01-22 11:55:00,
2013-01-22 05:00:00,33.5,10.0,30.19,ENE,59,0.0,0.0,37,0.00,,,0.00,Wunderground v.1.15,2013-01-22 12:00:00,
2013-01-22 05:05:00,33.6,10.1,30.21,North,5,0.0,0.0,37,0.00,,,0.00,Wunderground v.1.15,2013-01-22 12:05:00,
2013-01-22 05:15:00,33.8,9.6,30.22,NNE,23,0.0,0.0,36,0.00,,,0.00,Wunderground v.1.15,2013-01-22 12:15:00,
2013-01-22 05:25:00,33.7,9.5,30.22,ENE,59,0.0,0.0,36,0.00,,,0.00,Wunderground v.1.15,2013-01-22 12:25:00,
2013-01-22 05:35:00,33.8,9.6,30.22,North,9,0.0,0.0,36,0.00,,,0.00,Wunderground v.1.15,2013-01-22 12:35:00,
2013-01-22 05:40:00,33.9,9.7,30.22,NE,45,0.0,0.0,36,0.00,,,0.00,Wunderground v.1.15,2013-01-22 12:40:00,
2013-01-22 05:45:00,34.0,9.8,30.22,NE,53,0.0,0.0,36,0.00,,,0.00,Wunderground v.1.15,2013-01-22 12:45:00,
2013-01-22 05:50:00,34.0,9.8,30.22,NNW,333,0.0,0.0,36,0.00,,,0.00,Wunderground v.1.15,2013-01-22 12:50:00,
2013-01-22 05:55:00,34.1,9.9,30.22,NNW,346,0.0,0.0,36,0.00,,,0.00,Wunderground v.1.15,2013-01-22 12:55:00,
2013-01-22 06:05:00,34.1,9.9,30.25,NNE,26,0.0,0.0,36,0.00,,,0.00,Wunderground v.1.15,2013-01-22 13:05:00,
2013-01-22 06:15:00,33.5,9.4,30.25,NE,44,0.0,0.0,36,0.00,,,0.00,Wunderground v.1.15,2013-01-22 13:15:00,
2013-01-22 06:25:00,32.6,8.6,30.25,ENE,67,0.0,0.0,36,0.00,,,0.00,Wunderground v.1.15,2013-01-22 13:25:00,
2013-01-22 06:30:00,32.4,9.0,30.26,NNE,32,0.0,0.0,37,0.00,,,0.00,Wunderground v.1.15,2013-01-22 13:30:00,
2013-01-22 06:40:00,32.1,8.7,30.26,NE,52,0.0,0.0,37,0.00,,,0.00,Wunderground v.1.15,2013-01-22 13:40:00,
2013-01-22 06:45:00,32.1,9.3,30.26,NE,51,0.0,4.0,38,0.00,,,0.00,Wunderground v.1.15,2013-01-22 13:45:00,
2013-01-22 06:50:00,32.3,9.5,30.26,NE,44,0.0,0.0,38,0.00,,,0.00,Wunderground v.1.15,2013-01-22 13:50:00,
2013-01-22 06:55:00,32.4,9.6,30.26,NE,54,0.0,0.0,38,0.00,,,0.00,Wunderground v.1.15,2013-01-22 13:55:00,
2013-01-22 07:00:00,32.6,9.8,30.25,NE,42,1.0,1.0,38,0.00,,,0.00,Wunderground v.1.15,2013-01-22 14:00:00,
2013-01-22 07:05:00,32.7,9.8,30.29,NE,51,0.0,1.0,38,0.00,,,0.00,Wunderground v.1.15,2013-01-22 14:05:00,
2013-01-22 07:15:00,32.7,9.8,30.29,NE,51,0.0,3.0,38,0.00,,,0.00,Wunderground v.1.15,2013-01-22 14:15:00,
2013-01-22 07:20:00,32.7,9.8,30.29,NE,44,0.0,0.0,38,0.00,,,0.00,Wunderground v.1.15,2013-01-22 14:20:00,
2013-01-22 07:25:00,32.7,9.8,30.30,North,355,0.0,0.0,38,0.00,,,0.00,Wunderground v.1.15,2013-01-22 14:25:00,
2013-01-22 07:30:00,32.7,10.4,30.30,NNE,28,0.0,0.0,39,0.00,,,0.00,Wunderground v.1.15,2013-01-22 14:30:00,
2013-01-22 07:35:00,32.8,10.5,30.30,NE,56,0.0,0.0,39,0.00,,,0.00,Wunderground v.1.15,2013-01-22 14:35:00,
2013-01-22 07:45:00,33.0,10.7,30.31,NE,47,0.0,0.0,39,0.00,,,0.00,Wunderground v.1.15,2013-01-22 14:45:00,
2013-01-22 07:55:00,33.5,11.2,30.29,ENE,59,0.0,0.0,39,0.00,,,0.00,Wunderground v.1.15,2013-01-22 14:55:00,
2013-01-22 08:00:00,34.1,11.7,30.30,NNE,24,0.0,0.0,39,0.00,,,0.00,Wunderground v.1.15,2013-01-22 15:00:00,
2013-01-22 08:05:00,34.5,12.1,30.31,NNW,345,0.0,0.0,39,0.00,,,0.00,Wunderground v.1.15,2013-01-22 15:05:00,
2013-01-22 08:15:00,36.0,12.8,30.30,SE,144,0.0,0.0,38,0.00,,,0.00,Wunderground v.1.15,2013-01-22 15:15:00,
2013-01-22 08:20:00,36.7,12.8,30.30,NNE,19,0.0,0.0,37,0.00,,,0.00,Wunderground v.1.15,2013-01-22 15:20:00,
2013-01-22 08:25:00,37.3,12.7,30.30,NNW,346,0.0,0.0,36,0.00,,,0.00,Wunderground v.1.15,2013-01-22 15:25:00,
2013-01-22 08:30:00,37.8,13.2,30.29,ENE,63,0.0,0.0,36,0.00,,,0.00,Wunderground v.1.15,2013-01-22 15:30:00,
2013-01-22 08:35:00,38.3,13.6,30.29,North,355,0.0,0.0,36,0.00,,,0.00,Wunderground v.1.15,2013-01-22 15:35:00,
2013-01-22 08:45:00,38.8,13.4,30.30,North,5,0.0,2.0,35,0.00,,,0.00,Wunderground v.1.15,2013-01-22 15:45:00,
2013-01-22 08:55:00,39.1,13.7,30.30,North,5,0.0,1.0,35,0.00,,,0.00,Wunderground v.1.15,2013-01-22 15:55:00,
2013-01-22 09:00:00,39.2,13.8,30.30,NNE,19,1.0,1.0,35,0.00,,,0.00,Wunderground v.1.15,2013-01-22 16:00:00,
2013-01-22 09:05:00,39.5,14.1,30.31,NW,321,0.0,1.0,35,0.00,,,0.00,Wunderground v.1.15,2013-01-22 16:05:00,
2013-01-22 09:15:00,40.1,13.9,30.31,WNW,295,0.0,5.0,34,0.00,,,0.00,Wunderground v.1.15,2013-01-22 16:15:00,
2013-01-22 09:20:00,40.4,14.2,30.31,North,5,0.0,0.0,34,0.00,,,0.00,Wunderground v.1.15,2013-01-22 16:20:00,
2013-01-22 09:30:00,41.4,14.4,30.31,North,355,0.0,0.0,33,0.00,,,0.00,Wunderground v.1.15,2013-01-22 16:30:00,
2013-01-22 09:35:00,41.9,14.8,30.30,North,360,0.0,0.0,33,0.00,,,0.00,Wunderground v.1.15,2013-01-22 16:35:00,
2013-01-22 09:40:00,42.3,14.5,30.30,North,5,0.0,0.0,32,0.00,,,0.00,Wunderground v.1.15,2013-01-22 16:40:00,
2013-01-22 09:50:00,43.2,14.6,30.31,NNW,340,0.0,0.0,31,0.00,,,0.00,Wunderground v.1.15,2013-01-22 16:50:00,
2013-01-22 09:55:00,43.6,14.9,30.30,WNW,284,0.0,0.0,31,0.00,,,0.00,Wunderground v.1.15,2013-01-22 16:55:00,
2013-01-22 10:00:00,43.8,14.3,30.30,NW,317,0.0,0.0,30,0.00,,,0.00,Wunderground v.1.15,2013-01-22 17:00:00,
2013-01-22 10:05:00,44.1,14.6,30.31,NNW,344,0.0,0.0,30,0.00,,,0.00,Wunderground v.1.15,2013-01-22 17:05:00,
2013-01-22 10:15:00,44.6,14.3,30.31,NNW,343,0.0,0.0,29,0.00,,,0.00,Wunderground v.1.15,2013-01-22 17:15:00,
2013-01-22 10:20:00,45.0,14.6,30.31,North,360,0.0,0.0,29,0.00,,,0.00,Wunderground v.1.15,2013-01-22 17:20:00,
2013-01-22 10:25:00,45.4,14.9,30.31,NNW,328,0.0,0.0,29,0.00,,,0.00,Wunderground v.1.15,2013-01-22 17:25:00,
2013-01-22 10:35:00,46.7,15.3,30.30,North,5,0.0,0.0,28,0.00,,,0.00,Wunderground v.1.15,2013-01-22 17:35:00,
2013-01-22 10:40:00,47.3,15.8,30.30,North,349,0.0,0.0,28,0.00,,,0.00,Wunderground v.1.15,2013-01-22 17:40:00,
2013-01-22 10:45:00,48.0,16.4,30.28,West,272,0.0,0.0,28,0.00,,,0.00,Wunderground v.1.15,2013-01-22 17:45:00,
2013-01-22 10:55:00,49.4,16.8,30.28,ENE,67,0.0,0.0,27,0.00,,,0.00,Wunderground v.1.15,2013-01-22 17:55:00,
2013-01-22 11:00:00,50.0,17.3,30.27,North,10,0.0,0.0,27,0.00,,,0.00,Wunderground v.1.15,2013-01-22 18:00:00,
2013-01-22 11:05:00,50.5,17.7,30.28,NW,320,0.0,0.0,27,0.00,,,0.00,Wunderground v.1.15,2013-01-22 18:05:00,
2013-01-22 11:15:00,51.9,18.0,30.26,NNE,25,0.0,0.0,26,0.00,,,0.00,Wunderground v.1.15,2013-01-22 18:15:00,
2013-01-22 11:20:00,52.4,18.5,30.26,North,11,0.0,0.0,26,0.00,,,0.00,Wunderground v.1.15,2013-01-22 18:20:00,
2013-01-22 11:25:00,53.2,19.2,30.25,North,355,0.0,0.0,26,0.00,,,0.00,Wunderground v.1.15,2013-01-22 18:25:00,
2013-01-22 11:30:00,53.8,18.7,30.24,NNE,14,0.0,0.0,25,0.00,,,0.00,Wunderground v.1.15,2013-01-22 18:30:00,
2013-01-22 11:35:00,54.3,19.2,30.24,NNE,26,0.0,0.0,25,0.00,,,0.00,Wunderground v.1.15,2013-01-22 18:35:00,
2013-01-22 11:45:00,55.8,19.5,30.23,North,349,0.0,0.0,24,0.00,,,0.00,Wunderground v.1.15,2013-01-22 18:45:00,
2013-01-22 11:50:00,56.7,20.3,30.23,NNW,344,0.0,0.0,24,0.00,,,0.00,Wunderground v.1.15,2013-01-22 18:50:00,
2013-01-22 11:55:00,57.7,20.1,30.21,NNW,334,0.0,0.0,23,0.00,,,0.00,Wunderground v.1.15,2013-01-22 18:55:00,
2013-01-22 12:05:00,58.6,20.9,30.20,NNE,17,0.0,0.0,23,0.00,,,0.00,Wunderground v.1.15,2013-01-22 19:05:00,
2013-01-22 12:15:00,59.8,20.8,30.18,North,355,0.0,0.0,22,0.00,,,0.00,Wunderground v.1.15,2013-01-22 19:15:00,
2013-01-22 12:20:00,60.4,21.3,30.18,NNE,29,0.0,0.0,22,0.00,,,0.00,Wunderground v.1.15,2013-01-22 19:20:00,
2013-01-22 12:25:00,61.1,20.8,30.18,NW,304,0.0,0.0,21,0.00,,,0.00,Wunderground v.1.15,2013-01-22 19:25:00,
2013-01-22 12:30:00,61.9,21.5,30.17,NNW,348,0.0,0.0,21,0.00,,,0.00,Wunderground v.1.15,2013-01-22 19:30:00,
2013-01-22 12:35:00,62.6,20.9,30.16,NW,319,0.0,0.0,20,0.00,,,0.00,Wunderground v.1.15,2013-01-22 19:35:00,
2013-01-22 12:40:00,63.4,21.6,30.16,NNW,338,0.0,0.0,20,0.00,,,0.00,Wunderground v.1.15,2013-01-22 19:40:00,
2013-01-22 12:50:00,64.6,20.1,30.15,NNW,338,0.0,0.0,18,0.00,,,0.00,Wunderground v.1.15,2013-01-22 19:50:00,
2013-01-22 12:55:00,65.2,20.6,30.15,North,350,0.0,0.0,18,0.00,,,0.00,Wunderground v.1.15,2013-01-22 19:55:00,
2013-01-22 13:05:00,65.7,19.6,30.15,North,360,0.0,0.0,17,0.00,,,0.00,Wunderground v.1.15,2013-01-22 20:05:00,
2013-01-22 13:15:00,66.5,18.9,30.15,WNW,290,0.0,0.0,16,0.00,,,0.00,Wunderground v.1.15,2013-01-22 20:15:00,
2013-01-22 13:25:00,66.9,19.2,30.14,NNW,336,0.0,0.0,16,0.00,,,0.00,Wunderground v.1.15,2013-01-22 20:25:00,
2013-01-22 13:30:00,67.0,20.7,30.13,NNE,15,0.0,0.0,17,0.00,,,0.00,Wunderground v.1.15,2013-01-22 20:30:00,
2013-01-22 13:35:00,67.4,19.6,30.14,NNE,13,0.0,0.0,16,0.00,,,0.00,Wunderground v.1.15,2013-01-22 20:35:00,
2013-01-22 13:40:00,67.8,19.9,30.13,ENE,67,0.0,0.0,16,0.00,,,0.00,Wunderground v.1.15,2013-01-22 20:40:00,
2013-01-22 13:45:00,68.2,20.2,30.13,NNW,344,0.0,0.0,16,0.00,,,0.00,Wunderground v.1.15,2013-01-22 20:45:00,
2013-01-22 13:55:00,69.0,20.9,30.12,North,349,0.0,0.0,16,0.00,,,0.00,Wunderground v.1.15,2013-01-22 20:55:00,
2013-01-22 14:05:00,69.8,21.5,30.12,NNW,343,0.0,1.0,16,0.00,,,0.00,Wunderground v.1.15,2013-01-22 21:05:00,
2013-01-22 14:15:00,70.2,20.3,30.12,NW,323,0.0,0.0,15,0.00,,,0.00,Wunderground v.1.15,2013-01-22 21:15:00,
2013-01-22 14:20:00,70.6,22.2,30.11,West,277,0.0,3.0,16,0.00,,,0.00,Wunderground v.1.15,2013-01-22 21:20:00,
2013-01-22 14:25:00,70.7,22.3,30.11,NW,315,0.0,3.0,16,0.00,,,0.00,Wunderground v.1.15,2013-01-22 21:25:00,
2013-01-22 14:35:00,71.0,22.5,30.11,West,279,0.0,1.0,16,0.00,,,0.00,Wunderground v.1.15,2013-01-22 21:35:00,
2013-01-22 14:40:00,70.8,20.8,30.11,WNW,302,0.0,0.0,15,0.00,,,0.00,Wunderground v.1.15,2013-01-22 21:40:00,
2013-01-22 14:45:00,70.6,20.7,30.10,NNW,329,0.0,0.0,15,0.00,,,0.00,Wunderground v.1.15,2013-01-22 21:45:00,
2013-01-22 14:50:00,70.5,20.6,30.10,NNW,336,0.0,0.0,15,0.00,,,0.00,Wunderground v.1.15,2013-01-22 21:50:00,
2013-01-22 15:00:00,70.6,20.7,30.10,NW,311,0.0,0.0,15,0.00,,,0.00,Wunderground v.1.15,2013-01-22 22:00:00,
2013-01-22 15:05:00,70.7,20.7,30.11,NW,311,0.0,0.0,15,0.00,,,0.00,Wunderground v.1.15,2013-01-22 22:05:00,
2013-01-22 15:15:00,71.0,19.4,30.11,NNW,327,0.0,0.0,14,0.00,,,0.00,Wunderground v.1.15,2013-01-22 22:15:00,
2013-01-22 15:20:00,71.1,19.4,30.11,NNW,327,0.0,0.0,14,0.00,,,0.00,Wunderground v.1.15,2013-01-22 22:20:00,
2013-01-22 15:25:00,71.1,17.7,30.11,NW,325,0.0,0.0,13,0.00,,,0.00,Wunderground v.1.15,2013-01-22 22:25:00,
2013-01-22 15:30:00,70.8,19.2,30.11,NW,325,0.0,0.0,14,0.00,,,0.00,Wunderground v.1.15,2013-01-22 22:30:00,
2013-01-22 15:40:00,70.6,17.3,30.11,NW,319,0.0,0.0,13,0.00,,,0.00,Wunderground v.1.15,2013-01-22 22:40:00,
2013-01-22 15:45:00,70.2,18.7,30.11,NW,320,0.0,0.0,14,0.00,,,0.00,Wunderground v.1.15,2013-01-22 22:45:00,
2013-01-22 15:50:00,70.2,18.7,30.11,NW,319,0.0,0.0,14,0.00,,,0.00,Wunderground v.1.15,2013-01-22 22:50:00,
2013-01-22 15:55:00,70.3,18.8,30.11,NW,320,0.0,0.0,14,0.00,,,0.00,Wunderground v.1.15,2013-01-22 22:55:00,
2013-01-22 16:00:00,70.1,18.6,30.11,NW,319,0.0,0.0,14,0.00,,,0.00,Wunderground v.1.15,2013-01-22 23:00:00,
2013-01-22 16:05:00,70.1,18.6,30.10,NW,313,0.0,0.0,14,0.00,,,0.00,Wunderground v.1.15,2013-01-22 23:05:00,
2013-01-22 16:15:00,69.7,18.3,30.10,NW,304,0.0,0.0,14,0.00,,,0.00,Wunderground v.1.15,2013-01-22 23:15:00,
2013-01-22 16:20:00,69.6,18.2,30.10,West,260,0.0,0.0,14,0.00,,,0.00,Wunderground v.1.15,2013-01-22 23:20:00,
2013-01-22 16:25:00,69.2,17.9,30.11,West,261,0.0,0.0,14,0.00,,,0.00,Wunderground v.1.15,2013-01-22 23:25:00,
2013-01-22 16:35:00,68.6,17.4,30.11,West,261,0.0,0.0,14,0.00,,,0.00,Wunderground v.1.15,2013-01-22 23:35:00,
2013-01-22 16:40:00,68.0,18.6,30.11,West,261,0.0,0.0,15,0.00,,,0.00,Wunderground v.1.15,2013-01-22 23:40:00,
2013-01-22 16:45:00,67.3,18.0,30.12,West,260,0.0,0.0,15,0.00,,,0.00,Wunderground v.1.15,2013-01-22 23:45:00,
2013-01-22 16:50:00,66.7,17.5,30.12,West,273,0.0,0.0,15,0.00,,,0.00,Wunderground v.1.15,2013-01-22 23:50:00,
2013-01-22 16:55:00,66.0,17.0,30.12,West,273,0.0,0.0,15,0.00,,,0.00,Wunderground v.1.15,2013-01-22 23:55:00,
2013-01-22 17:00:00,65.3,16.4,30.13,West,273,0.0,0.0,15,0.00,,,0.00,Wunderground v.1.15,2013-01-23 00:00:00,
2013-01-22 17:05:00,64.7,15.9,30.14,West,273,0.0,0.0,15,0.00,,,0.00,Wunderground v.1.15,2013-01-23 00:05:00,
2013-01-22 17:15:00,63.9,16.8,30.14,West,273,0.0,0.0,16,0.00,,,0.00,Wunderground v.1.15,2013-01-23 00:15:00,
2013-01-22 17:20:00,63.6,16.5,30.14,West,273,0.0,0.0,16,0.00,,,0.00,Wunderground v.1.15,2013-01-23 00:20:00,
2013-01-22 17:25:00,63.2,16.2,30.15,West,273,0.0,0.0,16,0.00,,,0.00,Wunderground v.1.15,2013-01-23 00:25:00,
2013-01-22 17:30:00,62.7,17.2,30.15,West,273,0.0,0.0,17,0.00,,,0.00,Wunderground v.1.15,2013-01-23 00:30:00,
2013-01-22 17:35:00,62.2,16.8,30.15,West,273,0.0,0.0,17,0.00,,,0.00,Wunderground v.1.15,2013-01-23 00:35:00,
2013-01-22 17:45:00,61.1,17.2,30.16,West,273,0.0,0.0,18,0.00,,,0.00,Wunderground v.1.15,2013-01-23 00:45:00,
2013-01-22 17:55:00,60.1,16.4,30.16,West,273,0.0,0.0,18,0.00,,,0.00,Wunderground v.1.15,2013-01-23 00:55:00,
2013-01-22 18:00:00,59.6,16.0,30.16,West,273,0.0,0.0,18,0.00,,,0.00,Wunderground v.1.15,2013-01-23 01:00:00,
2013-01-22 18:05:00,59.0,16.7,30.17,West,273,0.0,0.0,19,0.00,,,0.00,Wunderground v.1.15,2013-01-23 01:05:00,
2013-01-22 18:15:00,58.1,16.0,30.18,West,273,0.0,0.0,19,0.00,,,0.00,Wunderground v.1.15,2013-01-23 01:15:00,
2013-01-22 18:20:00,57.6,15.6,30.18,West,273,0.0,0.0,19,0.00,,,0.00,Wunderground v.1.15,2013-01-23 01:20:00,
2013-01-22 18:25:00,57.0,16.3,30.18,West,273,0.0,0.0,20,0.00,,,0.00,Wunderground v.1.15,2013-01-23 01:25:00,
2013-01-22 18:30:00,56.4,15.8,30.19,West,273,0.0,0.0,20,0.00,,,0.00,Wunderground v.1.15,2013-01-23 01:30:00,
2013-01-22 18:35:00,55.8,15.3,30.20,West,273,0.0,0.0,20,0.00,,,0.00,Wunderground v.1.15,2013-01-23 01:35:00,
2013-01-22 18:40:00,55.2,15.9,30.20,West,273,0.0,0.0,21,0.00,,,0.00,Wunderground v.1.15,2013-01-23 01:40:00,
2013-01-22 18:45:00,54.8,15.6,30.20,West,273,0.0,0.0,21,0.00,,,0.00,Wunderground v.1.15,2013-01-23 01:45:00,
2013-01-22 18:55:00,53.7,14.6,30.21,West,273,0.0,0.0,21,0.00,,,0.00,Wunderground v.1.15,2013-01-23 01:55:00,
2013-01-22 19:05:00,52.5,13.6,30.22,West,273,0.0,0.0,21,0.00,,,0.00,Wunderground v.1.15,2013-01-23 02:05:00,
2013-01-22 19:15:00,51.5,12.8,30.22,West,273,0.0,0.0,21,0.00,,,0.00,Wunderground v.1.15,2013-01-23 02:15:00,
2013-01-22 19:20:00,51.1,13.5,30.23,West,273,0.0,0.0,22,0.00,,,0.00,Wunderground v.1.15,2013-01-23 02:20:00,
2013-01-22 19:25:00,50.7,13.2,30.23,West,273,0.0,0.0,22,0.00,,,0.00,Wunderground v.1.15,2013-01-23 02:25:00,
2013-01-22 19:35:00,49.9,12.5,30.23,West,273,0.0,0.0,22,0.00,,,0.00,Wunderground v.1.15,2013-01-23 02:35:00,
2013-01-22 19:40:00,49.5,13.2,30.23,West,273,0.0,0.0,23,0.00,,,0.00,Wunderground v.1.15,2013-01-23 02:40:00,
2013-01-22 19:45:00,49.1,12.8,30.24,West,273,0.0,0.0,23,0.00,,,0.00,Wunderground v.1.15,2013-01-23 02:45:00,
2013-01-22 19:50:00,48.7,13.5,30.24,West,273,0.0,0.0,24,0.00,,,0.00,Wunderground v.1.15,2013-01-23 02:50:00,
2013-01-22 20:00:00,48.1,13.0,30.24,West,273,0.0,0.0,24,0.00,,,0.00,Wunderground v.1.15,2013-01-23 03:00:00,
2013-01-22 20:05:00,47.7,13.5,30.22,West,273,0.0,0.0,25,0.00,,,0.00,Wunderground v.1.15,2013-01-23 03:05:00,
2013-01-22 20:15:00,47.0,12.9,30.23,West,273,0.0,0.0,25,0.00,,,0.00,Wunderground v.1.15,2013-01-23 03:15:00,
2013-01-22 20:20:00,46.8,12.8,30.23,West,273,0.0,0.0,25,0.00,,,0.00,Wunderground v.1.15,2013-01-23 03:20:00,
2013-01-22 20:25:00,46.5,12.5,30.23,West,273,0.0,0.0,25,0.00,,,0.00,Wunderground v.1.15,2013-01-23 03:25:00,
2013-01-22 20:30:00,46.3,12.3,30.24,West,273,0.0,0.0,25,0.00,,,0.00,Wunderground v.1.15,2013-01-23 03:30:00,
2013-01-22 20:35:00,46.0,13.0,30.25,West,273,0.0,0.0,26,0.00,,,0.00,Wunderground v.1.15,2013-01-23 03:35:00,
2013-01-22 20:45:00,45.5,12.5,30.25,West,273,0.0,0.0,26,0.00,,,0.00,Wunderground v.1.15,2013-01-23 03:45:00,
2013-01-22 20:50:00,45.2,13.1,30.25,West,273,0.0,0.0,27,0.00,,,0.00,Wunderground v.1.15,2013-01-23 03:50:00,
2013-01-22 21:00:00,44.6,12.6,30.25,West,273,0.0,0.0,27,0.00,,,0.00,Wunderground v.1.15,2013-01-23 04:00:00,
2013-01-22 21:05:00,44.2,12.3,30.24,West,273,0.0,0.0,27,0.00,,,0.00,Wunderground v.1.15,2013-01-23 04:05:00,
2013-01-22 21:15:00,43.7,11.8,30.24,West,273,0.0,0.0,27,0.00,,,0.00,Wunderground v.1.15,2013-01-23 04:15:00,
2013-01-22 21:20:00,43.5,11.7,30.24,West,273,0.0,0.0,27,0.00,,,0.00,Wunderground v.1.15,2013-01-23 04:20:00,
2013-01-22 21:25:00,43.3,12.3,30.25,West,273,0.0,0.0,28,0.00,,,0.00,Wunderground v.1.15,2013-01-23 04:25:00,
2013-01-22 21:30:00,43.0,11.2,30.25,West,273,0.0,0.0,27,0.00,,,0.00,Wunderground v.1.15,2013-01-23 04:30:00,
2013-01-22 21:35:00,42.8,11.9,30.25,West,273,0.0,0.0,28,0.00,,,0.00,Wunderground v.1.15,2013-01-23 04:35:00,
2013-01-22 21:40:00,42.6,10.9,30.25,West,273,0.0,0.0,27,0.00,,,0.00,Wunderground v.1.15,2013-01-23 04:40:00,
2013-01-22 21:50:00,42.3,11.5,30.25,West,273,0.0,0.0,28,0.00,,,0.00,Wunderground v.1.15,2013-01-23 04:50:00,
2013-01-22 22:00:00,41.8,11.8,30.25,West,273,0.0,0.0,29,0.00,,,0.00,Wunderground v.1.15,2013-01-23 05:00:00,
2013-01-22 22:05:00,41.6,11.6,30.23,West,273,0.0,0.0,29,0.00,,,0.00,Wunderground v.1.15,2013-01-23 05:05:00,
2013-01-22 22:10:00,41.3,11.4,30.24,West,273,0.0,0.0,29,0.00,,,0.00,Wunderground v.1.15,2013-01-23 05:10:00,
2013-01-22 22:15:00,41.0,11.1,30.25,West,273,0.0,0.0,29,0.00,,,0.00,Wunderground v.1.15,2013-01-23 05:15:00,
2013-01-22 22:20:00,40.5,10.7,30.25,West,273,0.0,0.0,29,0.00,,,0.00,Wunderground v.1.15,2013-01-23 05:20:00,
2013-01-22 22:25:00,40.1,10.3,30.25,West,273,0.0,0.0,29,0.00,,,0.00,Wunderground v.1.15,2013-01-23 05:25:00,
2013-01-22 22:30:00,39.8,10.1,30.24,West,273,0.0,0.0,29,0.00,,,0.00,Wunderground v.1.15,2013-01-23 05:30:00,
2013-01-22 22:40:00,39.3,9.6,30.25,West,273,0.0,0.0,29,0.00,,,0.00,Wunderground v.1.15,2013-01-23 05:40:00,
2013-01-22 22:45:00,39.1,9.5,30.25,West,273,0.0,0.0,29,0.00,,,0.00,Wunderground v.1.15,2013-01-23 05:45:00,
2013-01-22 22:50:00,38.8,10.0,30.25,West,273,0.0,0.0,30,0.00,,,0.00,Wunderground v.1.15,2013-01-23 05:50:00,
2013-01-22 23:00:00,38.3,9.5,30.25,West,273,0.0,0.0,30,0.00,,,0.00,Wunderground v.1.15,2013-01-23 06:00:00,
2013-01-22 23:05:00,38.2,10.2,30.21,West,273,0.0,0.0,31,0.00,,,0.00,Wunderground v.1.15,2013-01-23 06:05:00,
2013-01-22 23:15:00,37.8,9.8,30.21,West,273,0.0,0.0,31,0.00,,,0.00,Wunderground v.1.15,2013-01-23 06:15:00,
2013-01-22 23:25:00,37.6,10.4,30.21,West,273,0.0,0.0,32,0.00,,,0.00,Wunderground v.1.15,2013-01-23 06:25:00,
2013-01-22 23:35:00,37.4,10.2,30.23,West,273,0.0,0.0,32,0.00,,,0.00,Wunderground v.1.15,2013-01-23 06:35:00,
2013-01-22 23:40:00,37.3,10.1,30.23,West,273,0.0,0.0,32,0.00,,,0.00,Wunderground v.1.15,2013-01-23 06:40:00,
2013-01-22 23:45:00,37.1,10.6,30.23,West,273,0.0,0.0,33,0.00,,,0.00,Wunderground v.1.15,2013-01-23 06:45:00,
2013-01-22 23:50:00,37.0,10.5,30.23,West,273,0.0,0.0,33,0.00,,,0.00,Wunderground v.1.15,2013-01-23 06:50:00,
2013-01-22 23:55:00,37.0,11.2,30.23,West,273,0.0,0.0,34,0.00,,,0.00,Wunderground v.1.15,2013-01-23 06:55:00,